User: anonymous   Login
Location: Unspecified
(0.0000°N, 0.0000°E)
Time: 20:03:47
(UTC+00:00)
Language:

OPAL - Orbit

View from above orbital plane
View from above orbital plane
View from above satellite
View from above satellite

Ground track
Ground track

The orbit data is extracted from the following two-line orbital elements,

1 26063U 00004C   22221.99752435  .00000069  00000-0  43178-4 0  9996
2 26063 100.2284 237.5421 0036980  48.5610 311.8737 14.36882872181313
Epoch (UTC): 09 August 2022 23:56:26
Eccentricity: 0.0036980
inclination: 100.2284°
perigee height: 742 km
apogee height: 795 km
right ascension of ascending node: 237.5421°
argument of perigee: 48.5610°
revolutions per day: 14.36882872
mean anomaly at epoch: 311.8737°
orbit number at epoch: 18131

The dashed part of the orbit path shows where the satellite is in the earth's shadow,  

DLR